Location: South Lake Conway Villa
(28.4637°N, 81.3446°W)
Time: 22:27:53
(UTC+00:00)

USA 215 - Visible Passes

Search period start: 18 November 2025 00:00
Search period end: 28 November 2025 00:00
Orbit: 1101 x 1106 km, 123.0° (Epoch: 16 November)

Date Brightness Start Highest point End Pass type
(mag) Time Alt. Az. Time Alt. Az. Time Alt. Az.
18 Nov 5.1 01:36:47 19° SSW 01:39:26 24° WSW 01:44:32 10° WNW visible
18 Nov 4.0 23:08:13 10° E 23:13:51 32° NE 23:19:29 10° NNW visible
19 Nov 3.7 00:53:33 32° SSE 00:56:32 57° SW 01:02:56 10° NW visible
20 Nov 3.2 00:10:05 27° ESE 00:13:49 67° NE 00:20:17 10° NW visible
20 Nov 5.1 01:57:30 24° WSW 01:57:30 24° WSW 02:02:02 10° WNW visible
20 Nov 3.9 23:26:28 13° E 23:31:21 32° NE 23:37:00 10° NNW visible
21 Nov 3.6 01:13:52 57° SW 01:14:02 57° SW 01:20:27 10° NW visible
21 Nov 4.7 22:45:17 10° ENE 22:49:13 17° NNE 22:53:09 10° N visible
22 Nov 3.1 00:30:07 56° E 00:31:19 67° NE 00:37:48 10° NW visible
22 Nov 5.5 02:17:31 17° W 02:17:31 17° W 02:19:31 10° WNW visible
22 Nov 3.9 23:46:16 24° ENE 23:48:52 33° NE 23:54:32 10° NNW visible
23 Nov 4.3 01:33:39 40° WNW 01:33:39 40° WNW 01:37:58 10° NW visible
23 Nov 4.7 23:02:46 10° ENE 23:06:43 17° NNE 23:10:40 10° N visible
24 Nov 3.3 00:49:43 61° N 00:49:43 61° N 00:55:19 10° NW visible
25 Nov 3.9 00:05:42 32° NE 00:06:23 33° NE 00:12:03 10° NNW visible
25 Nov 5.0 01:53:05 24° WNW 01:53:05 24° WNW 01:55:29 10° NW visible
25 Nov 4.7 23:21:37 14° ENE 23:24:14 17° NNE 23:28:12 10° N visible
26 Nov 4.1 01:09:00 38° NNW 01:09:00 38° NNW 01:12:50 10° NW visible
27 Nov 4.1 00:24:51 32° NNE 00:24:51 32° NNE 00:29:34 10° NNW visible
27 Nov 5.6 02:12:14 14° NW 02:12:14 14° NW 02:12:59 10° NW visible
27 Nov 4.6 23:40:40 17° NE 23:41:44 17° NNE 23:45:44 10° N visible
